Theta_e
331 331 330 328 324 321 318 317 316 315 314 314 315 313 312 311 313 310 310 309 309 309
324 322 322 322 322 318 315 316 314 314 313 313 314 312 310 309 309 310 309 309 308 308
319 319 318 318 314 314 312 311 311 311 310 311 311 310 309 308 309 308 308 309 308 307
317 315 315 314 311 310 310 310 311 312 311 309 307 306 305 306 307 306 306 308 308 307
312 311 310 310 309 309 309 310 311 309 307 306 304 303 304 304 305 305 305 307 306 307
308 308 307 307 308 309 311 310 309 306 303 302 301 300 300 301 302 304 305 308 309 312
306 307 307 308 310 309 310 309 306 303 303 301 299 299 299 300 299 302 310 312 313 313
306 307 309 308 308 308 309 308 307 303 301 299 299 299 297 298 298 303 308 312 314 315
307 308 306 306 306 306 306 306 305 301 299 296 299 298 299 300 298 305 309 310 312 313
307 306 306 306 307 305 304 303 302 299 297 294 295 296 296 300 300 300 305 307 304 306
305 304 304 303 304 307 306 302 300 299 296 294 295 295 295 298 299 301 304 307 304 301
303 303 303 302 302 307 307 304 299 298 297 294 292 294 294 294 297 298 302 305 305 302
302 303 302 305 305 305 307 303 300 297 294 295 290 293 293 293 293 294 299 302 303 301
301 301 304 304 304 304 303 301 298 295 292 291 292 290 292 293 290 292 295 298 299 300
Wind_Speed
12 6 6 7 8 5 6 6 6 7 6 6 6 5 4 3 3 4 3 4 4 3
10 11 14 9 6 8 5 6 6 7 6 6 5 5 6 5 6 5 4 4 5 2
12 13 13 8 9 7 6 6 7 7 7 7 8 8 7 5 6 6 4 3 6 4
10 10 10 8 7 6 7 6 8 10 10 9 8 7 6 6 6 5 5 5 5 6
10 10 10 7 6 7 8 9 11 10 10 8 8 7 6 6 5 5 5 5 6 5
9 9 8 8 7 8 11 8 10 9 9 8 7 6 6 5 5 5 5 4 4 4
8 7 7 9 9 9 9 9 9 8 7 6 5 6 6 6 5 5 5 5 4 4
6 7 10 9 8 8 8 7 7 8 6 5 6 6 7 5 5 5 5 5 5 4
9 9 7 7 7 7 7 7 8 7 6 6 6 13 13 7 4 5 4 5 5 3
9 8 6 6 6 7 7 6 7 6 6 6 6 13 14 12 5 5 5 5 6 5
7 6 6 6 6 7 6 6 5 5 5 5 6 13 16 13 6 5 5 4 5 4
6 6 6 6 5 4 6 6 5 5 6 6 5 15 16 11 6 6 6 5 6 5
5 6 6 4 5 3 4 6 5 5 5 10 7 13 15 13 4 7 6 6 6 9
7 6 5 5 5 4 5 5 4 6 4 6 8 8 14 15 6 5 5 5 7 7
Wind_Direction
104 117 87 96 111 107 97 95 84 83 86 86 78 63 52 49 43 32 29 358 360 345
89 97 105 97 99 98 109 93 83 79 80 75 97 59 43 30 24 30 11 10 15 359
80 81 86 92 85 83 88 85 86 79 63 59 50 44 51 38 22 30 6 26 15 353
75 86 83 82 87 94 89 88 68 73 71 59 49 37 39 24 24 19 7 7 3 347
82 82 83 79 76 74 71 64 84 78 74 62 48 32 30 20 359 2 358 344 357 344
83 83 82 77 68 70 80 74 78 77 68 56 42 27 12 358 350 343 332 322 335 328
82 90 83 81 81 77 83 82 81 71 73 60 42 25 2 351 338 328 330 329 325 352
88 77 84 79 81 80 80 86 88 87 63 42 36 12 353 345 333 322 324 333 343 53
79 81 77 77 75 81 81 82 87 77 67 38 28 359 6 353 323 317 328 345 352 41
75 71 68 74 81 95 91 85 96 90 69 44 19 4 5 358 356 349 349 356 24 360
83 82 75 73 70 91 106 102 94 93 79 52 23 14 9 357 3 342 353 16 21 349
87 83 79 76 72 81 108 94 80 78 71 45 21 21 15 8 358 354 355 352 5 351
72 83 73 56 70 58 95 110 109 85 68 50 38 18 19 17 357 1 345 341 345 327
47 55 35 45 40 58 96 86 90 87 59 45 31 4 12 18 12 344 322 331 346 333